Meteopurmerend
purmerend
Purmerend - Baaienwijk



My webcam  My webcam


waarschuwing voor Onweer Meer informatie blitzortung!


Regen radar Meer informatie rain snow radar


Bezoek onze andere website:

CandyAppleRed WebdesignWebdesign Purmerend Candy Apple Red

MeteopurmerendBlog

Template documentation
and downloads



Onweer van: 19-06-2019 10:00 tot: 23:00 waarschuwing voor: Onweer niveau: Geel info button
Enkele onweersbuien, mogelijk met hagel en windstoten tot ca. 75 km/uur.Verkeer en buitenactiviteiten kunnen hinder ondervinden.Mijd open water en open gebied, schuil niet onder bomen.Volg weerberichten en waarschuwingen.

15 daagse weersverwachting Lillestrøm (NO)

  • Overzicht
  • Per uur
  • 15 dagen
  • Extra
  • Vergelijk
  • Kaarten
  • Dagkaart
  • Meer »
  • Info
  • Statistieken
  • Directe link
    Temp 6h Neerslag Wind  
 03:55     22:42    Daglengte: 18:47 Vandaag
14:00
20°
 
2
20:00
17°
 
2
 03:55     22:43    Daglengte: 18:48 Morgen
02:00
13°
6.7 mm
2
warningclass
08:00
16°
17.0 mm
2
warningclass
14:00
18°
18.9 mm
5
20:00
18°
3.4 mm
4
 03:55     22:43    Daglengte: 18:48 Vrijdag 21 Jun
02:00
12°
 
4
08:00
13°
 
4
14:00
17°
 
6
20:00
15°
 
5
 03:55     22:43    Daglengte: 18:48 Zaterdag 22 Jun
02:00
10°
 
3
08:00
12°
 
5
Locatie info
Region: Akershus
Latitude: 59.9570°N
Longitude: 11.0483°E
116 masl
Postcode: 2000
Temp/Neerslag /Baro Onweer/Dauwpunt
    Temp Baro 1h Neerslag Dauwpunt Wind UV Bewolking  
 03:55     22:42    Daglengte: 18:47 Vandaag
14:00
20°
1010.4 hPa
61%
8.1°
2
Windvlaag: 5.1 m/s
37%
15:00
21°
1010.1 hPa   7.3°
2
Windvlaag: 5.2 m/s
64%
16:00
20°
1009.9 hPa   7.6°
2
Windvlaag: 5.4 m/s
63%
17:00
19°
1009.6 hPa
14%
7.8°
2
Windvlaag: 4.2 m/s
70%
18:00
19°
1009.2 hPa
65%
8.0°
2
Windvlaag: 3.9 m/s
71%
19:00
17°
1009.0 hPa
60%
8.8°
3
Windvlaag: 4.7 m/s
80%
20:00
17°
1008.9 hPa
61%
9.9°
2
Windvlaag: 4.6 m/s
70%
21:00
16°
1008.8 hPa
36%
11.7°
2
Windvlaag: 4.1 m/s
85%
22:00
15°
1008.8 hPa 0.3 mm
74%
11.9°
1
Windvlaag: 3 m/s
87%
23:00
14°
1008.4 hPa 0.7 mm
74%
12.2°
2
Windvlaag: 2.4 m/s
87%
 03:55     22:43    Daglengte: 18:48 Morgen
00:00
14°
1007.9 hPa 0.9 mm
80%
12.1°
2
Windvlaag: 1.7 m/s
88%
01:00
13°
1007.2 hPa 2.0 mm
82%
12.1°
2
Windvlaag: 2.7 m/s
91%
02:00
13°
1006.6 hPa 2.8 mm
82%
12.4°
2
Windvlaag: 2.4 m/s
91% warningclass
03:00
13°
1005.6 hPa 1.8 mm
82%
12.5°
3
Windvlaag: 3.4 m/s
90%
04:00
13°
1005.4 hPa 2.0 mm
82%
12.7°
1
Windvlaag: 2 m/s
91%
05:00
13°
1004.6 hPa 2.6 mm
82%
13.0°
1
Windvlaag: 0.7 m/s
91%
06:00
14°
1004.0 hPa 3.4 mm
82%
13.3°
1
Windvlaag: 1 m/s
90% warningclass
07:00
15°
1003.1 hPa 3.8 mm
82%
14.2°
2
Windvlaag: 2 m/s
90%
08:00
16°
1002.6 hPa 3.4 mm
82%
15.1°
2
Windvlaag: 3 m/s
90% warningclass
09:00
16°
1002.0 hPa 4.7 mm
82%
15.6°
2
Windvlaag: 3.9 m/s
87% warningclass
10:00
17°
1001.5 hPa 3.1 mm
82%
15.7°
3
Windvlaag: 4.2 m/s
89%
11:00
17°
1001.5 hPa 2.9 mm
82%
16.1°
3
Windvlaag: 5.1 m/s
90% warningclass
12:00
18°
1001.6 hPa
82%
16.2°
3
Windvlaag: 5.3 m/s
86% warningclass
13:00
18°
1001.7 hPa 4.4 mm
82%
15.9°
4
Windvlaag: 6.6 m/s
85% warningclass
14:00
18°
1001.8 hPa 3.9 mm
82%
15.4°
5
Windvlaag: 7.8 m/s
82%
15:00
18°
1001.8 hPa
82%
15.7°
5
Windvlaag: 8.5 m/s
55%
16:00
18°
1002.0 hPa 3.4 mm
82%
15.1°
5
Windvlaag: 9.7 m/s
58%
17:00
19°
1002.1 hPa
76%
14.1°
5
Windvlaag: 9.3 m/s
49%
18:00
19°
1002.2 hPa
26%
13.7°
5
Windvlaag: 9.2 m/s
70%
19:00
18°
1002.5 hPa
17%
14.0°
5
Windvlaag: 8.6 m/s
64%
20:00
18°
1002.8 hPa
23%
14.2°
4
Windvlaag: 7.9 m/s
28%
21:00
17°
1003.2 hPa
25%
13.8°
4
Windvlaag: 7.4 m/s
60%
22:00
16°
1003.6 hPa
23%
13.1°
3
Windvlaag: 6.8 m/s
33%
23:00
15°
1004.3 hPa
20%
12.3°
3
Windvlaag: 7.3 m/s
20%
 03:55     22:43    Daglengte: 18:48 Vrijdag 21 Jun
00:00
14°
1005.1 hPa
16%
10.2°
4
Windvlaag: 7.5 m/s
6%
01:00
13°
1005.8 hPa
14%
9.0°
3
Windvlaag: 7 m/s
0%
02:00
12°
1006.4 hPa
14%
8.2°
4
Windvlaag: 6.4 m/s
0%
03:00
12°
1006.7 hPa
14%
7.4°
4
Windvlaag: 6.4 m/s
1%
04:00
11°
1007.1 hPa
14%
7.1°
3
Windvlaag: 6.5 m/s
0%
05:00
11°
1007.2 hPa
21%
7.7°
3
Windvlaag: 6.5 m/s
0%
06:00
12°
1007.4 hPa
21%
8.0°
3
Windvlaag: 6.1 m/s
0%
07:00
13°
1007.8 hPa
21%
7.8°
4
Windvlaag: 6.6 m/s
6%
08:00
13°
1008.3 hPa
21%
6.9°
4
Windvlaag: 7.1 m/s
3%
09:00
14°
1008.8 hPa
21%
6.0°
4
Windvlaag: 7.1 m/s
7%
10:00
15°
1009.2 hPa
21%
5.6°
5
Windvlaag: 7.5 m/s
3%
11:00
16°
1009.5 hPa
21%
5.7°
5
Windvlaag: 8.2 m/s
4%
12:00
17°
1009.6 hPa
21%
6.3°
5
Windvlaag: 8.6 m/s
4%
13:00
17°
1009.8 hPa
21%
7.6°
5
Windvlaag: 8.9 m/s
27%
14:00
17°
1009.8 hPa
25%
8.0°
6
Windvlaag: 10 m/s
41%
15:00
17°
1009.8 hPa
81%
8.1°
6
Windvlaag: 10.7 m/s
39%
16:00
17°
1009.5 hPa
95%
8.7°
6
Windvlaag: 11 m/s
47%
17:00
17°
1009.4 hPa
96%
8.5°
6
Windvlaag: 11.4 m/s
52%
18:00
16°
1009.4 hPa
98%
8.1°
6
Windvlaag: 11.7 m/s
29%
19:00
15°
1009.4 hPa
99%
7.4°
6
Windvlaag: 10.7 m/s
50%
20:00
15°
1009.5 hPa
52%
5.8°
5
Windvlaag: 10.2 m/s
29%
21:00
14°
1009.8 hPa
42%
5.8°
4
Windvlaag: 9 m/s
65%
22:00
13°
1010.3 hPa
21%
6.5°
4
Windvlaag: 7 m/s
16%
23:00
12°
1010.8 hPa
21%
6.3°
4
Windvlaag: 6.6 m/s
62%
 03:55     22:43    Daglengte: 18:48 Zaterdag 22 Jun
00:00
11°
1011.5 hPa
21%
6.1°
4
Windvlaag: 6.6 m/s
14%
01:00
11°
1012.0 hPa
21%
5.7°
4
Windvlaag: 6.4 m/s
2%
02:00
10°
1012.5 hPa
21%
5.1°
3
Windvlaag: 6.1 m/s
1%
03:00
10°
1012.4 hPa
21%
5.2°
3
Windvlaag: 9 m/s
0%
04:00
11°
1012.9 hPa
21%
5.2°
4
Windvlaag: 9.6 m/s
0%
05:00
11°
1013.2 hPa
21%
5.0°
4
Windvlaag: 9.3 m/s
0%
06:00
11°
1013.8 hPa
21%
5.0°
4
Windvlaag: 8.7 m/s
0%
07:00
12°
1014.2 hPa
21%
5.1°
4
Windvlaag: 8.2 m/s
0%
08:00
12°
1014.6 hPa
24%
5.1°
5
Windvlaag: 1.2 m/s
0%
09:00
13°
1014.9 hPa
21%
5.1°
5
Windvlaag: 7.9 m/s
7%
10:00
15°
1015.3 hPa
21%
5.0°
5
Windvlaag: 7.8 m/s
13%
11:00
16°
1015.6 hPa
21%
5.0°
5
Windvlaag: 7.3 m/s
30%
12:00
17°
1015.8 hPa
76%
4.7°
5
Windvlaag: 7.3 m/s
28%
13:00
18°
1016.0 hPa
32%
4.2°
5
Windvlaag: 6.8 m/s
35%
Temp/Neerslag /Baro Onweer/Dauwpunt
    Temp Baro Neerslag Dauwpunt Wind Bewolking  
 03:55     22:42    Daglengte: 18:47 Vandaag
14:00
20°
1010.4 hPa   8.1°
2
37%
17:00
19°
1009.6 hPa   7.8°
2
70%
20:00
17°
1008.9 hPa   9.9°
2
70%
23:00
14°
1008.4 hPa 1.0 mm 12.2°
2
87%
 03:55     22:43    Daglengte: 18:48 Morgen
02:00
13°
1006.6 hPa 5.7 mm 12.4°
2
91% warningclass
05:00
13°
1004.6 hPa 6.4 mm 13.0°
1
91%
08:00
16°
1002.6 hPa 10.6 mm 15.1°
2
90% warningclass
11:00
17°
1001.5 hPa 10.7 mm 16.1°
3
90% warningclass
14:00
18°
1001.8 hPa 8.2 mm 15.4°
5
82%
17:00
19°
1002.1 hPa 3.4 mm 14.1°
5
49%
20:00
18°
1002.8 hPa   14.2°
4
28%
23:00
15°
1004.3 hPa   12.3°
3
20%
 03:55     22:43    Daglengte: 18:48 Vrijdag 21 Jun
02:00
12°
1006.4 hPa   8.2°
4
0%
05:00
11°
1007.2 hPa   7.7°
3
0%
08:00
13°
1008.3 hPa   6.9°
4
3%
11:00
16°
1009.5 hPa   5.7°
5
4%
14:00
17°
1009.8 hPa   8.0°
6
41%
17:00
17°
1009.4 hPa   8.5°
6
52%
20:00
15°
1009.5 hPa   5.8°
5
29%
23:00
12°
1010.8 hPa   6.3°
4
62%
 03:55     22:43    Daglengte: 18:48 Zaterdag 22 Jun
02:00
10°
1012.5 hPa   5.1°
3
1%
05:00
11°
1013.2 hPa   5.0°
4
0%
08:00
12°
1014.6 hPa   5.1°
5
0%
11:00
16°
1015.6 hPa   5.0°
5
30%
14:00
19°
1016.3 hPa   3.6°
5
65%
17:00
18°
1017.4 hPa 16.1 mm 5.8°
4
34%
20:00
17°
1017.7 hPa 16.1 mm 7.0°
4
14%
23:00
14°
1019.1 hPa 16.1 mm 6.7°
3
7%
 03:56     22:43    Daglengte: 18:47 Zondag 23 Jun
02:00
10°
1020.3 hPa 16.1 mm 5.6°
3
0%
05:00
12°
1021.0 hPa 16.1 mm 5.9°
3
1%
08:00
14°
1021.6 hPa 16.1 mm 6.1°
2
2%
11:00
17°
1021.9 hPa 16.1 mm 6.5°
3
35%
14:00
20°
1022.1 hPa 16.1 mm 6.4°
3
67%
17:00
19°
1022.4 hPa 16.1 mm 9.0°
3
61%
20:00
18°
1022.7 hPa 16.1 mm 11.1°
3
55%
23:00
14°
1024.0 hPa 16.1 mm 10.7°
2
60%
 03:56     22:43    Daglengte: 18:47 Maandag 24 Jun
02:00
11°
1025.2 hPa 16.1 mm 9.6°
1
64%
05:00
13°
1025.9 hPa 16.1 mm 9.1°
1
55%
08:00
15°
1026.5 hPa 16.1 mm 8.7°
1
45%
11:00
18°
1026.7 hPa 16.1 mm 9.0°
1
66%
14:00
21°
1026.9 hPa 16.1 mm 8.5°
1
87%
17:00
20°
1026.8 hPa 16.1 mm 10.3°
1
89%
20:00
19°
1026.8 hPa 16.1 mm 11.9°
1
91%
23:00
16°
1028.0 hPa 16.1 mm 11.7°
1
91%
 03:57     22:43    Daglengte: 18:46 Dinsdag 25 Jun
02:00
13°
1029.1 hPa 16.1 mm 11.2°
1
90%
05:00
14°
1028.9 hPa 16.1 mm 11.2°
1
89%
08:00
15°
1028.7 hPa 16.1 mm 11.2°
1
88%
11:00
18°
1028.1 hPa 16.1 mm 11.4°
2
89%
14:00
21°
1027.6 hPa 16.1 mm 11.0°
2
91%
17:00
20°
1026.8 hPa 16.1 mm 12.2°
2
90%
20:00
19°
1025.9 hPa 16.1 mm 13.1°
2
90%
23:00
16°
1025.9 hPa 16.1 mm 12.5°
2
78%
 03:57     22:43    Daglengte: 18:46 Woensdag 26 Jun
02:00
13°
1025.9 hPa 16.1 mm 11.5°
1
67%
05:00
14°
1025.2 hPa 16.1 mm 12.2°
1
69%
08:00
16°
1024.5 hPa 16.1 mm 13.1°
1
72%
11:00
19°
1022.9 hPa   13.0°
2
71%
14:00
22°
1021.3 hPa 32.1 mm 11.9°
3
70%
20:00
20°
1019.2 hPa 32.1 mm 14.0°
2
46%
 03:58     22:42    Daglengte: 18:44 Donderdag 27 Jun
02:00
14°
1019.0 hPa 32.1 mm 12.4°
2
66%
08:00
16°
1018.5 hPa 32.1 mm 10.3°
2
34%
14:00
22°
1016.4 hPa 32.1 mm 9.8°
3
72%
20:00
20°
1012.9 hPa 32.1 mm 12.8°
3
49%
 03:59     22:42    Daglengte: 18:43 Vrijdag 28 Jun
02:00
13°
1013.9 hPa 32.1 mm 9.1°
3
11%
08:00
15°
1012.5 hPa 32.1 mm 8.6°
3
27%
14:00
21°
1010.2 hPa 32.1 mm 7.5°
3
65%
20:00
18°
1010.7 hPa 32.1 mm 8.4°
4
10%
 04:00     22:41    Daglengte: 18:41 Zaterdag 29 Jun
02:00
14°
1010.3 hPa 32.2 mm 13.8°
1
0%
08:00
15°
1011.0 hPa 0.7 mm 9.9°
0
39%
14:00
20°
1009.4 hPa 0.7 mm 10.1°
1
40%
20:00
19°
1008.1 hPa 0.3 mm 11.3°
2
35%
 04:01     22:41    Daglengte: 18:40 Zondag 30 Jun
02:00
11°
1009.6 hPa 0.6 mm 8.5°
0
25%
08:00
15°
1009.5 hPa 1.6 mm 9.2°
1
25%
14:00
20°
1008.7 hPa 0.7 mm 9.5°
2
32%
20:00
19°
1007.9 hPa 0.4 mm 10.5°
3
35%
 04:02     22:40    Daglengte: 18:38 Maandag 01 Jul
02:00
11°
1008.9 hPa 0.4 mm 8.6°
1
26%
08:00
15°
1008.6 hPa 0.4 mm 9.4°
0
30%
14:00
20°
1007.5 hPa 1.0 mm 10.1°
1
38%
20:00
19°
1006.6 hPa 2.5 mm 12.7°
1
44%
 04:03     22:39    Daglengte: 18:36 Dinsdag 02 Jul
02:00
12°
1007.9 hPa 1.9 mm 10.0°
0
43%
08:00
15°
1008.3 hPa 0.8 mm 10.6°
1
48%
14:00
20°
1007.8 hPa 0.7 mm 10.4°
0
37%
20:00
19°
1007.4 hPa 1.5 mm 11.6°
0
45%
 04:04     22:39    Daglengte: 18:35 Woensdag 03 Jul
02:00
12°
1008.9 hPa 1.2 mm 9.4°
1
43%
08:00
14°
1009.1 hPa 0.7 mm 10.2°
2
43%
14:00
20°
1008.6 hPa 0.6 mm 10.2°
0
39%
20:00
19°
1008.3 hPa 0.9 mm 12.4°
2
33%
 04:05     22:38    Daglengte: 18:33 Donderdag 04 Jul
02:00
12°
1009.9 hPa 0.7 mm 9.8°
0
27%
08:00
15°
1010.4 hPa 0.2 mm 10.9°
1
27%
  CAPE Lifted Index Hail Supercell Tornado SRH 3km CL BTM PRES CL TOP PRES Swiss DWD icon SMHI TS
 03:55     22:42    Daglengte: 18:47 Vandaag
14:00 0 J/kg 5.4 K 0 % 0 % 0 % 0 m²/s² 0 0 5.52 3
15:00 0 J/kg 6.2 K 0 % 0 % 0 % 0 m²/s² 0 0 6.5 3
16:00 0 J/kg 5.4 K 0 % 0 % 0 % 0 m²/s² 0 0 5.7 2
17:00 0 J/kg 4.4 K 0 % 0 % 0 % 0 m²/s² 0 0 4.97 3
18:00 0 J/kg 3.4 K 0 % 0 % 0 % 0 m²/s² 0 0 3.79 2
19:00 0 J/kg 3.7 K 0 % 0 % 0 % 0 m²/s² 0 0 4.27 3
20:00 0 J/kg 3.3 K 0 % 0 % 0 % 0 m²/s² 0 0 3.87 3
21:00 0 J/kg 2.3 K 0 % 0 % 0 % 0 m²/s² 0 0 2.51 3
22:00 0 J/kg 2.1 K 0 % 0 % 0 % 0 m²/s² 0 0 2.28 3
23:00 0 J/kg 2.2 K 0 % 0 % 0 % 0 m²/s² 0 0 2.71 80
 03:55     22:43    Daglengte: 18:48 Morgen
00:00 0 J/kg 0.8 K 0 % 0 % 0 % 0 m²/s² 0 0 1.46 80
01:00 0 J/kg 0.9 K 0 % 0 % 0 % 0 m²/s² 0 0 1.02 80
02:00 0 J/kg -0.9 K 0 % 0 % 0 % 0 m²/s² 0 0 -0.9 95
03:00 0 J/kg -2.0 K 0 % 0 % 0 % 0 m²/s² 0 0 -1.52 61
04:00 0 J/kg 0.6 K 0 % 0 % 0 % 0 m²/s² 0 0 1.02 80
05:00 0 J/kg 1.4 K 0 % 0 % 0 % 0 m²/s² 0 0 1.49 80
06:00 0 J/kg 1.1 K 0 % 0 % 0 % 0 m²/s² 0 0 1.79 95
07:00 0 J/kg 1.1 K 0 % 0 % 0 % 0 m²/s² 0 0 1.13 80
08:00 143 J/kg 0.0 K 0 % 0 % 0 % 0 m²/s² 0 0 0.51 95
09:00 354 J/kg -1.3 K 0 % 0 % 0 % 0 m²/s² 0 0 -0.46 95
10:00 591 J/kg -2.5 K 0 % 0 % 0 % 0 m²/s² 0 0 -1.66 80
11:00 606 J/kg -2.4 K 0 % 0 % 0 % 0 m²/s² 0 0 -2.07 95
12:00 796 J/kg -2.7 K 0 % 0 % 0 % 0 m²/s² 0 0 -2.37 95
13:00 954 J/kg -3.2 K 0 % 0 % 0 % 0 m²/s² 0 0 -2.54 95
14:00 760 J/kg -2.6 K 0 % 0 % 0 % 0 m²/s² 0 0 -1.4 80
15:00 662 J/kg -2.3 K 0 % 0 % 0 % 0 m²/s² 0 0 -1.1 2
16:00 608 J/kg -2.4 K 0 % 0 % 0 % 0 m²/s² 0 0 -1.41 2
17:00 370 J/kg -1.8 K 0 % 0 % 0 % 0 m²/s² 0 0 -0.51 3
18:00 156 J/kg -1.0 K 0 % 0 % 0 % 0 m²/s² 0 0 0.65 3
19:00 88 J/kg -1.0 K 0 % 0 % 0 % 0 m²/s² 0 0 0.86 3
20:00 109 J/kg -2.3 K 0 % 0 % 0 % 0 m²/s² 0 0 -0.5 2
21:00 60 J/kg -2.8 K 0 % 0 % 0 % 0 m²/s² 0 0 -0.49 2
22:00 1 J/kg -1.7 K 0 % 0 % 0 % 0 m²/s² 0 0 1.93 2
23:00 0 J/kg 0.8 K 0 % 0 % 0 % 0 m²/s² 0 0 3.38 3
 03:55     22:43    Daglengte: 18:48 Vrijdag 21 Jun
00:00 0 J/kg 2.5 K 0 % 0 % 0 % 0 m²/s² 0 0 5.08 3
01:00 0 J/kg 2.3 K 0 % 0 % 0 % 0 m²/s² 0 0 5.87 0
02:00 0 J/kg 2.9 K 0 % 0 % 0 % 0 m²/s² 0 0 7.28 0
03:00 0 J/kg 3.8 K 0 % 0 % 0 % 0 m²/s² 0 0 9.8 0
04:00 0 J/kg 4.0 K 0 % 0 % 0 % 0 m²/s² 0 0 7.27 0
05:00 0 J/kg 5.5 K 0 % 0 % 0 % 0 m²/s² 0 0 8.29 0
06:00 0 J/kg 5.8 K 0 % 0 % 0 % 0 m²/s² 0 0 10.24 0
07:00 0 J/kg 5.6 K 0 % 0 % 0 % 0 m²/s² 0 0 11.36 3
08:00 0 J/kg 5.3 K 0 % 0 % 0 % 0 m²/s² 0 0 11.39 3
09:00 0 J/kg 5.7 K 0 % 0 % 0 % 0 m²/s² 0 0 11.76 0
10:00 0 J/kg 6.7 K 0 % 0 % 0 % 0 m²/s² 0 0 12.73 1
11:00 0 J/kg 5.7 K 0 % 0 % 0 % 0 m²/s² 0 0 11.07 2
12:00 21 J/kg 3.8 K 0 % 0 % 0 % 0 m²/s² 0 0 8.24 1
13:00 195 J/kg 1.4 K 0 % 0 % 0 % 0 m²/s² 0 0 4.85 0
14:00 390 J/kg -0.5 K 0 % 0 % 0 % 0 m²/s² 0 0 1.9 3
15:00 429 J/kg -1.2 K 0 % 0 % 0 % 0 m²/s² 0 0 0.27 0
16:00 511 J/kg -2.2 K 0 % 0 % 0 % 0 m²/s² 0 0 -0.67 1
17:00 581 J/kg -2.6 K 0 % 0 % 0 % 0 m²/s² 0 0 -0.53 3
18:00 551 J/kg -2.7 K 0 % 0 % 0 % 0 m²/s² 0 0 -1.23 1
19:00 465 J/kg -2.2 K 0 % 0 % 0 % 0 m²/s² 0 0 -1 80
20:00 384 J/kg -1.8 K 0 % 0 % 0 % 0 m²/s² 0 0 -0.33 2
21:00 342 J/kg -1.6 K 0 % 0 % 0 % 0 m²/s² 0 0 0.26 3
22:00 281 J/kg -0.8 K 0 % 0 % 0 % 0 m²/s² 0 0 1.09 0
23:00 71 J/kg 1.4 K 0 % 0 % 0 % 0 m²/s² 0 0 3.62 3
 03:55     22:43    Daglengte: 18:48 Zaterdag 22 Jun
00:00 0 J/kg 3.0 K 0 % 0 % 0 % 0 m²/s² 0 0 5.7 0
01:00 0 J/kg 3.2 K 0 % 0 % 0 % 0 m²/s² 0 0 5.54 0
02:00 0 J/kg 3.7 K 0 % 0 % 0 % 0 m²/s² 0 0 5.92 0
03:00 0 J/kg 4.0 K 0 % 0 % 0 % 0 m²/s² 0 0 6.16 0
04:00 0 J/kg 4.3 K 0 % 0 % 0 % 0 m²/s² 0 0 6.19 0
05:00 0 J/kg 4.7 K 0 % 0 % 0 % 0 m²/s² 0 0 6.26 0
06:00 0 J/kg 4.7 K 0 % 0 % 0 % 0 m²/s² 0 0 7.07 0
07:00 0 J/kg 4.6 K 0 % 0 % 0 % 0 m²/s² 0 0 6.91 0
08:00 0 J/kg 3.9 K 0 % 0 % 0 % 0 m²/s² 0 0 6.36 0
09:00 0 J/kg 3.6 K 0 % 0 % 0 % 0 m²/s² 0 0 6.45 0
10:00 0 J/kg 3.7 K 0 % 0 % 0 % 0 m²/s² 0 0 7.12 0
11:00 8 J/kg 3.7 K 0 % 0 % 0 % 0 m²/s² 0 0 7.03 0
12:00 23 J/kg 4.1 K 0 % 0 % 0 % 0 m²/s² 0 0 7.91 2
13:00 31 J/kg 4.2 K 0 % 0 % 0 % 0 m²/s² 0 0 8.85 1
Temp Baro Wind Neerslag
  EWN Forecast EWN WRFDA DWD ICON FMI HIRLAM MET Norway GFS
 03:55     22:42    Daglengte: 18:47 Vandaag
14:00 20.0° 1010.4 hPa 2.2 m/s 0.0 mm 20.2° 1010.0 hPa 3.6 m/s 0.0 mm 17.6° 1010.8 hPa 2.4 m/s -1.9 mm 20.8° 1010.1 hPa 2.4 m/s 0.0 mm 21.1° 1010.4 hPa 1.9 m/s 0.0 mm 20.7° 1009.5 hPa 3.6 m/s
17:00 19.2° 1009.6 hPa 2.2 m/s 0.0 mm 20.8° 1008.3 hPa 3.7 m/s 0.1 mm 18.9° 1009.9 hPa 2.9 m/s 0.0 mm 19.9° 1009.0 hPa 2.2 m/s 0.0 mm 19.5° 1009.7 hPa 1.5 m/s 0.0 mm 20.1° 1008.1 hPa 2.4 m/s
20:00 16.6° 1008.9 hPa 2.1 m/s 0.0 mm 19.6° 1007.9 hPa 3.5 m/s 0.1 mm 16.8° 1008.6 hPa 1.9 m/s 0.1 mm 16.2° 1008.3 hPa 1.4 m/s 0.0 mm 16.8° 1009.1 hPa 3.6 m/s 0.0 mm 18.8° 1007.4 hPa 1.9 m/s
23:00 14.1° 1008.4 hPa 2.0 m/s 1.0 mm 15.3° 1007.3 hPa 2.1 m/s 0.1 mm 15.3° 1008.3 hPa 0.8 m/s 0.7 mm 14.1° 1008.1 hPa 1.1 m/s 0.0 mm 13.9° 1008.5 hPa 2.4 m/s 1.5 mm 14.6° 1007.6 hPa 0.2 m/s
 03:55     22:43    Daglengte: 18:48 Morgen
02:00 13.3° 1006.6 hPa 2.3 m/s 5.7 mm 13.8° 1006.0 hPa 2.2 m/s 2.5 mm 14.1° 1006.9 hPa 1.3 m/s 3.6 mm 13.3° 1005.9 hPa 2.1 m/s 0.0 mm 13.3° 1006.6 hPa 2.5 m/s 11.1 mm 13.9° 1006.7 hPa 1.6 m/s
05:00 13.3° 1004.6 hPa 1.4 m/s 6.4 mm 13.1° 1004.0 hPa 2.2 m/s 25.5 mm 13.8° 1005.3 hPa 1.3 m/s 2.6 mm 13.6° 1003.9 hPa 1.4 m/s 0.0 mm 13.3° 1004.7 hPa 1.0 m/s 2.7 mm 12.0° 1004.8 hPa 1.5 m/s
08:00 15.8° 1002.6 hPa 1.7 m/s 10.6 mm 16.4° 1001.8 hPa 3.6 m/s 42.7 mm 14.9° 1003.2 hPa 1.3 m/s 5.3 mm 17.7° 1001.5 hPa 1.9 m/s 0.0 mm 15.8° 1002.8 hPa 0.9 m/s 1.5 mm 13.1° 1003.6 hPa 1.5 m/s
11:00 17.2° 1001.5 hPa 3.2 m/s 10.7 mm 18.3° 1001.5 hPa 3.4 m/s 44.6 mm 16.6° 1002.6 hPa 4.7 m/s 5.9 mm 17.9° 1000.6 hPa 4.5 m/s 0.0 mm 17.2° 1001.4 hPa 2.5 m/s 4.4 mm 15.8° 1002.8 hPa 1.2 m/s
14:00 18.1° 1001.8 hPa 4.6 m/s 8.2 mm 20.5° 1000.6 hPa 5.9 m/s 49.1 mm 15.8° 1002.1 hPa 4.5 m/s 3.5 mm 18.7° 1000.9 hPa 6.2 m/s 0.0 mm 18.3° 1002.4 hPa 2.7 m/s 0.0 mm 16.2° 1002.3 hPa 2.7 m/s
17:00 19.1° 1002.1 hPa 4.9 m/s 3.4 mm 20.6° 1000.4 hPa 6.8 m/s 50.2 mm 16.3° 1002.8 hPa 5.5 m/s 0.2 mm 19.8° 1002.2 hPa 4.2 m/s 0.0 mm 19.7° 1002.2 hPa 4.5 m/s 0.0 mm 19.0° 1001.7 hPa 4.7 m/s
20:00 17.7° 1002.8 hPa 4.0 m/s 0.0 mm 17.5° 1000.9 hPa 5.4 m/s 50.2 mm 15.9° 1003.2 hPa 3.9 m/s 0.0 mm 18.4° 1002.8 hPa 4.1 m/s 0.0 mm 18.4° 1003.0 hPa 3.0 m/s 0.0 mm 17.1° 1001.8 hPa 4.7 m/s
23:00 14.6° 1004.3 hPa 3.3 m/s 0.0 mm 13.9° 1001.8 hPa 4.0 m/s 50.2 mm 14.6° 1003.9 hPa 2.7 m/s 0.0 mm 14.2° 1004.9 hPa 1.4 m/s 0.0 mm 16.1° 1004.5 hPa 3.4 m/s 0.0 mm 13.2° 1003.5 hPa 2.9 m/s
 03:55     22:43    Daglengte: 18:48 Vrijdag 21 Jun
02:00 12.2° 1006.4 hPa 3.6 m/s 0.0 mm 11.6° 1003.1 hPa 3.4 m/s 50.2 mm 13.3° 1005.4 hPa 3.7 m/s 0.0 mm 11.1° 1006.8 hPa 2.3 m/s 0.0 mm 12.5° 1006.7 hPa 3.7 m/s 0.0 mm 10.8° 1004.9 hPa 3.3 m/s
05:00 11.3° 1007.2 hPa 3.4 m/s 0.0 mm 10.7° 1004.1 hPa 3.7 m/s 50.2 mm 12.0° 1007.0 hPa 3.0 m/s 0.0 mm 11.4° 1007.5 hPa 3.3 m/s 0.0 mm 9.8° 1006.2 hPa 3.5 m/s
08:00 13.5° 1008.3 hPa 4.3 m/s 0.0 mm 14.3° 1004.9 hPa 3.1 m/s 50.2 mm 13.6° 1007.5 hPa 4.7 m/s 0.0 mm 13.6° 1008.6 hPa 4.3 m/s 0.0 mm 12.8° 1006.9 hPa 4.5 m/s
11:00 16.0° 1009.5 hPa 5.0 m/s 0.0 mm 16.3° 1007.0 hPa 5.2 m/s 50.2 mm 16.2° 1009.2 hPa 5.8 m/s 0.0 mm 16.3° 1009.7 hPa 4.6 m/s 0.0 mm 17.2° 1007.5 hPa 5.7 m/s
14:00 17.3° 1009.8 hPa 5.9 m/s 0.0 mm 16.7° 1007.3 hPa 7.3 m/s 50.3 mm 17.6° 1008.9 hPa 6.4 m/s 0.0 mm 17.9° 1010.1 hPa 5.3 m/s 0.0 mm 18.3° 1007.7 hPa 6.5 m/s
17:00 16.6° 1009.4 hPa 6.2 m/s 0.0 mm 16.9° 1007.3 hPa 7.6 m/s 51.0 mm 15.9° 1009.6 hPa 6.5 m/s 0.1 mm 17.5° 1009.8 hPa 6.0 m/s 0.0 mm 15.6° 1008.2 hPa 6.8 m/s
20:00 14.8° 1009.5 hPa 5.3 m/s 0.0 mm 15.2° 1007.7 hPa 5.8 m/s 53.0 mm 14.2° 1009.4 hPa 5.3 m/s 0.3 mm 15.0° 1009.8 hPa 5.5 m/s 0.0 mm 14.3° 1008.7 hPa 3.8 m/s
23:00 12.0° 1010.8 hPa 4.0 m/s 0.0 mm 11.6° 1009.3 hPa 4.3 m/s 54.0 mm 12.4° 1009.3 hPa 4.5 m/s 0.0 mm 12.2° 1011.3 hPa 3.7 m/s 0.0 mm 10.4° 1010.7 hPa 3.7 m/s
 03:55     22:43    Daglengte: 18:48 Zaterdag 22 Jun
02:00 10.1° 1012.5 hPa 3.3 m/s 0.0 mm 8.7° 1011.4 hPa 4.1 m/s 54.0 mm 11.3° 1009.9 hPa 3.0 m/s 0.0 mm 10.2° 1013.1 hPa 3.2 m/s 0.0 mm 8.2° 1012.5 hPa 3.6 m/s
05:00 10.7° 1013.2 hPa 3.7 m/s 0.0 mm 7.9° 1012.8 hPa 3.8 m/s 54.0 mm 10.6° 1011.5 hPa 3.3 m/s 0.0 mm 11.4° 1014.0 hPa 3.8 m/s 7.4° 1014.4 hPa 3.1 m/s
08:00 12.4° 1014.6 hPa 4.7 m/s 0.0 mm 12.1° 1014.8 hPa 5.1 m/s 54.0 mm 12.3° 1013.4 hPa 4.9 m/s 0.0 mm 12.6° 1014.8 hPa 4.4 m/s 12.6° 1015.9 hPa 4.2 m/s
11:00 15.7° 1015.6 hPa 4.9 m/s 0.0 mm 15.8° 1015.8 hPa 5.4 m/s 54.0 mm 15.7° 1014.9 hPa 4.9 m/s 0.0 mm 15.6° 1015.7 hPa 4.9 m/s 16.2° 1016.8 hPa 3.8 m/s
14:00 18.6° 1016.3 hPa 5.4 m/s 0.0 mm 18.5° 1016.3 hPa 5.5 m/s 54.0 mm 18.5° 1015.2 hPa 5.1 m/s 0.0 mm 18.7° 1016.6 hPa 5.4 m/s 19.2° 1017.3 hPa 4.1 m/s
17:00 17.8° 1017.4 hPa 4.3 m/s 16.1 mm 17.6° 1017.3 hPa 4.3 m/s 19.7° 1017.9 hPa 4.1 m/s 16.1 mm
20:00 17.1° 1017.7 hPa 3.7 m/s 16.1 mm 17.1° 1017.7 hPa 3.8 m/s 17.4° 1018.3 hPa 3.1 m/s 16.1 mm
23:00 13.6° 1019.1 hPa 3.3 m/s 16.1 mm 13.8° 1019.0 hPa 3.4 m/s 11.2° 1020.0 hPa 1.9 m/s 16.1 mm
 03:56     22:43    Daglengte: 18:47 Zondag 23 Jun
02:00 10.4° 1020.3 hPa 2.9 m/s 16.1 mm 10.5° 1020.3 hPa 3.0 m/s 8.9° 1020.7 hPa 1.3 m/s 16.1 mm
05:00 11.8° 1021.0 hPa 2.6 m/s 16.1 mm 12.1° 1021.0 hPa 2.8 m/s 9.4° 1021.0 hPa 0.6 m/s 16.1 mm
08:00 13.7° 1021.6 hPa 2.5 m/s 16.1 mm 13.6° 1021.7 hPa 2.6 m/s 14.7° 1020.8 hPa 1.0 m/s 16.1 mm
11:00 16.8° 1021.9 hPa 2.7 m/s 16.1 mm 16.6° 1022.0 hPa 2.8 m/s 19.2° 1020.8 hPa 2.0 m/s 16.1 mm
14:00 19.6° 1022.1 hPa 3.0 m/s 16.1 mm 19.5° 1022.3 hPa 3.0 m/s 20.9° 1020.5 hPa 3.1 m/s 16.1 mm
17:00 18.8° 1022.4 hPa 3.1 m/s 16.1 mm 18.6° 1022.6 hPa 3.0 m/s 20.7° 1019.8 hPa 4.2 m/s 16.1 mm
20:00 17.6° 1022.7 hPa 3.0 m/s 16.1 mm 17.7° 1023.0 hPa 3.0 m/s 17.1° 1019.9 hPa 3.1 m/s 16.1 mm
23:00 14.3° 1024.0 hPa 2.0 m/s 16.1 mm 14.4° 1024.2 hPa 2.1 m/s 12.7° 1022.0 hPa 0.9 m/s 16.1 mm
 03:56     22:43    Daglengte: 18:47 Maandag 24 Jun
02:00 11.0° 1025.2 hPa 1.2 m/s 16.1 mm 11.1° 1025.3 hPa 1.2 m/s 10.3° 1023.6 hPa 1.3 m/s 16.1 mm
05:00 12.5° 1025.9 hPa 1.3 m/s 16.1 mm 12.8° 1026.0 hPa 1.2 m/s 8.9° 1024.5 hPa 2.1 m/s 16.1 mm
08:00 14.5° 1026.5 hPa 1.3 m/s 16.1 mm 14.6° 1026.7 hPa 1.2 m/s 13.5° 1024.7 hPa 2.7 m/s 16.1 mm
11:00 17.8° 1026.7 hPa 1.4 m/s 16.1 mm 17.8° 1026.9 hPa 1.3 m/s 18.9° 1024.7 hPa 2.2 m/s 16.1 mm
14:00 21.1° 1026.9 hPa 1.3 m/s 16.1 mm 20.9° 1027.1 hPa 1.4 m/s 23.7° 1024.4 hPa 0.8 m/s 16.1 mm
17:00 20.3° 1026.8 hPa 1.3 m/s 16.1 mm 20.0° 1027.0 hPa 1.4 m/s 22.9° 1023.9 hPa 0.4 m/s 16.1 mm
20:00 19.3° 1026.8 hPa 1.3 m/s 16.1 mm 19.2° 1027.0 hPa 1.4 m/s 20.5° 1024.3 hPa 0.3 m/s 16.1 mm
23:00 15.9° 1028.0 hPa 1.3 m/s 16.1 mm 16.1° 1028.2 hPa 1.3 m/s 13.6° 1026.2 hPa 1.0 m/s 16.1 mm
 03:57     22:43    Daglengte: 18:46 Dinsdag 25 Jun
02:00 13.0° 1029.1 hPa 1.1 m/s 16.1 mm 13.1° 1029.3 hPa 1.2 m/s 11.7° 1027.2 hPa 0.5 m/s 16.1 mm
05:00 14.0° 1028.9 hPa 1.1 m/s 16.1 mm 14.1° 1029.0 hPa 1.1 m/s 12.2° 1027.2 hPa 0.7 m/s 16.1 mm
08:00 15.2° 1028.7 hPa 1.0 m/s 16.1 mm 15.2° 1028.8 hPa 1.0 m/s 15.5° 1027.3 hPa 0.8 m/s 16.1 mm
11:00 18.2° 1028.1 hPa 1.7 m/s 16.1 mm 18.2° 1028.2 hPa 1.7 m/s 17.2° 1027.4 hPa 1.6 m/s 16.1 mm
14:00 21.0° 1027.6 hPa 2.4 m/s 16.1 mm 21.3° 1027.6 hPa 2.4 m/s 17.5° 1027.1 hPa 2.4 m/s 16.1 mm
17:00 19.7° 1026.8 hPa 2.1 m/s 16.1 mm 20.1° 1026.8 hPa 2.1 m/s 15.8° 1026.9 hPa 1.7 m/s 16.1 mm
20:00 18.5° 1025.9 hPa 1.9 m/s 16.1 mm 18.8° 1025.9 hPa 1.9 m/s 15.6° 1026.4 hPa 2.0 m/s 16.1 mm
23:00 15.6° 1025.9 hPa 1.6 m/s 16.1 mm 15.9° 1025.8 hPa 1.6 m/s 11.6° 1027.3 hPa 1.3 m/s 16.1 mm
 03:57     22:43    Daglengte: 18:46 Woensdag 26 Jun
02:00 12.8° 1025.9 hPa 1.2 m/s 16.1 mm 13.1° 1025.7 hPa 1.3 m/s 9.7° 1027.8 hPa 0.3 m/s 16.1 mm
05:00 14.1° 1025.2 hPa 1.3 m/s 16.1 mm 14.5° 1025.0 hPa 1.3 m/s 9.7° 1027.7 hPa 0.9 m/s 16.1 mm
08:00 15.9° 1024.5 hPa 1.3 m/s 16.1 mm 15.9° 1024.3 hPa 1.3 m/s 15.4° 1027.0 hPa 1.0 m/s 16.1 mm
11:00 19.1° 1022.9 hPa 1.9 m/s 16.1 mm 18.9° 1022.6 hPa 2.0 m/s 21.8° 1026.5 hPa 1.3 m/s 16.1 mm
14:00 22.3° 1021.3 hPa 2.5 m/s 16.1 mm 21.9° 1020.9 hPa 2.7 m/s 26.3° 1025.4 hPa 0.8 m/s 16.1 mm
20:00 20.2° 1019.2 hPa 2.0 m/s 16.1 mm 20.0° 1018.9 hPa 2.1 m/s 22.9° 1023.1 hPa 0.9 m/s 16.1 mm
 03:58     22:42    Daglengte: 18:44 Donderdag 27 Jun
02:00 13.6° 1019.0 hPa 1.6 m/s 16.1 mm 13.6° 1018.5 hPa 1.7 m/s 13.3° 1024.1 hPa 0.3 m/s 16.1 mm
08:00 15.8° 1018.5 hPa 2.5 m/s 16.1 mm 15.5° 1018.1 hPa 2.6 m/s 18.9° 1023.3 hPa 1.0 m/s 16.1 mm
14:00 21.7° 1016.4 hPa 3.0 m/s 16.1 mm 21.2° 1016.1 hPa 3.0 m/s 27.0° 1020.2 hPa 2.6 m/s 16.1 mm
20:00 20.1° 1012.9 hPa 2.7 m/s 16.1 mm 19.8° 1012.5 hPa 2.7 m/s 23.4° 1017.1 hPa 2.9 m/s 16.1 mm
 03:59     22:42    Daglengte: 18:43 Vrijdag 28 Jun
02:00 13.0° 1013.9 hPa 2.7 m/s 16.1 mm 12.9° 1013.6 hPa 2.8 m/s 13.8° 1017.1 hPa 1.2 m/s 16.1 mm
08:00 14.7° 1012.5 hPa 2.7 m/s 16.1 mm 14.3° 1012.2 hPa 2.8 m/s 18.8° 1015.9 hPa 1.3 m/s 16.1 mm
14:00 20.6° 1010.2 hPa 3.3 m/s 16.1 mm 19.7° 1009.9 hPa 3.5 m/s 30.1° 1013.5 hPa 0.8 m/s 16.1 mm
20:00 18.5° 1010.7 hPa 3.6 m/s 16.1 mm 18.0° 1010.7 hPa 3.7 m/s 23.7° 1011.1 hPa 3.1 m/s 16.1 mm
 04:00     22:41    Daglengte: 18:41 Zaterdag 29 Jun
02:00 14.2° 1010.3 hPa 1.2 m/s 16.1 mm 14.2° 1010.3 hPa 1.2 m/s 16.1 mm
08:00 14.8° 1011.0 hPa 0.3 m/s 0.7 mm
14:00 20.2° 1009.4 hPa 1.3 m/s 0.7 mm
20:00 19.4° 1008.1 hPa 1.9 m/s 0.3 mm
 04:01     22:41    Daglengte: 18:40 Zondag 30 Jun
02:00 11.3° 1009.6 hPa 0.2 m/s 0.6 mm
08:00 14.8° 1009.5 hPa 0.7 m/s 1.6 mm
14:00 19.9° 1008.7 hPa 2.4 m/s 0.7 mm
20:00 18.6° 1007.9 hPa 2.6 m/s 0.4 mm
 04:02     22:40    Daglengte: 18:38 Maandag 01 Jul
02:00 11.4° 1008.9 hPa 0.9 m/s 0.4 mm
08:00 14.7° 1008.6 hPa 0.2 m/s 0.4 mm
14:00 20.2° 1007.5 hPa 1.2 m/s 1.0 mm
20:00 18.6° 1006.6 hPa 1.2 m/s 2.5 mm
 04:03     22:39    Daglengte: 18:36 Dinsdag 02 Jul
02:00 11.6° 1007.9 hPa 0.4 m/s 1.9 mm
08:00 14.5° 1008.3 hPa 0.9 m/s 0.8 mm
14:00 20.2° 1007.8 hPa 0.5 m/s 0.7 mm
20:00 18.6° 1007.4 hPa 0.5 m/s 1.5 mm
 04:04     22:39    Daglengte: 18:35 Woensdag 03 Jul
02:00 11.8° 1008.9 hPa 1.3 m/s 1.2 mm
08:00 14.1° 1009.1 hPa 1.6 m/s 0.7 mm
14:00 20.0° 1008.6 hPa 0.3 m/s 0.6 mm
20:00 18.7° 1008.3 hPa 1.8 m/s 0.9 mm
 04:05     22:38    Daglengte: 18:33 Donderdag 04 Jul
02:00 11.6° 1009.9 hPa 0.3 m/s 0.7 mm
08:00 14.8° 1010.4 hPa 1.1 m/s 0.2 mm
FMI Hirlam - 7.5 km EWN WRFDA - 12 km DWD ICON - 7 km GFS - 25 km Basiskaart






























































Updatetijd (Europe/Amsterdam) Resolutie Lengte Stap
FMI Hirlam 07:00, 13:00, 19:00, 01:00 7.5 km 49h 1h
EWN WRFDA 10:15, 16:15, 22:15, 04:15 12 km 73h 1h
DWD ICON 11:45, 17:45, 23:45, 05:45 7 km 75h 1h
GFS 08:45, 14:45, 20:45, 02:45 25 km 237h 3h
30+ mm
25-30 mm
20-25 mm
15-20 mm
10-15 mm
6-10 mm
4-6 mm
2-4 mm
1-2 mm
0.5-1 mm
0.2-0.5 mm
0.1-0.2 mm
30+ mm
25-30 mm
20-25 mm
15-20 mm
10-15 mm
6-10 mm
4-6 mm
2-4 mm
1-2 mm
0.5-1 mm
0.2-0.5 mm
0.1-0.2 mm
Sneeuwval
Natte sneeuw
Hagel
Vorst
30+ mm
25-30 mm
20-25 mm
15-20 mm
10-15 mm
6-10 mm
4-6 mm
2-4 mm
1-2 mm
0.5-1 mm
0.2-0.5 mm
0.1-0.2 mm
Sneeuwval
Natte sneeuw
Hagel
Vorst
Onweer
50 mm
40 mm
30 mm
26 mm
22 mm
18 mm
14 mm
10 mm
9 mm
8 mm
7 mm
6 mm
5 mm
4.5 mm
4 mm
3.5 mm
3 mm
2.5 mm
2 mm
1.5 mm
1 mm
0.8 mm
0.6 mm
0.4 mm
0.2 mm
0.05 mm
35°
30°
25°
20°
15°
10°
-5°
-10°
-15°
-20°
-25°
-30°
-35°
33> m/s
29 m/s
25 m/s
21 m/s
17 m/s
14 m/s
11 m/s
8 m/s
5 m/s
3 m/s
0 m/s
2600 J/kg
2400 J/kg
2200 J/kg
2000 J/kg
1800 J/kg
1600 J/kg
1400 J/kg
1200 J/kg
1000 J/kg
800 J/kg
600 J/kg
400 J/kg
200 J/kg
70 dBZ
65 dBZ
60 dBZ
55 dBZ
50 dBZ
45 dBZ
40 dBZ
35 dBZ
30 dBZ
25 dBZ
20 dBZ
15 dBZ
10 dBZ
5 dBZ
-1 K
-2 K
-3 K
-4 K
-5 K
-6 K
-7 K
-8 K
-9 K
950 m²/s²
900 m²/s²
850 m²/s²
800 m²/s²
750 m²/s²
700 m²/s²
650 m²/s²
600 m²/s²
550 m²/s²
500 m²/s²
450 m²/s²
400 m²/s²
350 m²/s²
300 m²/s²
250 m²/s²
200 m²/s²
150 m²/s²
100 m²/s²
46 m/s
44 m/s
42 m/s
40 m/s
38 m/s
36 m/s
34 m/s
32 m/s
30 m/s
28 m/s
26 m/s
24 m/s
22 m/s
20 m/s
16 m/s
12 m/s
8 m/s
4 m/s
30 m/s
28 m/s
26 m/s
24 m/s
22 m/s
20 m/s
18 m/s
16 m/s
14 m/s
12 m/s
10 m/s
8 m/s
6 m/s
4 m/s
2 m/s
3.0
2.8
2.6
2.4
2.2
2.0
1.8
1.6
1.4
1.2
1.0
0.8
0.6
0.4
0.2
15
14
13
12
11
10
9
8
7
6
5
4
3
2
1
90%
80%
70%
60%
50%
40%
30%
20%
10%
42
40